Tracking 34784 objects as of 21-Jul-2026
HD Live streaming from Space Station
objects crossing your sky now

PEGASUS DEB

Track PEGASUS DEB now!
10-day predictions


NORAD ID: 25442
Int'l Code: 1994-029ADX
Perigee: 549.1 km
Apogee: 830.3 km
Inclination: 81.8 °
Period: 98.4 minutes
Semi major axis: 7060 km
RCS: 0.0116 m2 (small)
Launch date: May 19, 1994
Source: United States (US)
Launch site: AIR FORCE WESTERN TEST RANGE (AFWTR)

Note: This is SATELLITE DEBRIS
Your satellite tracking list
Your tracking list is empty




NASA's NSSDC Master Catalog

Two Line Element Set (TLE):
1 25442U 94029ADX 26202.20293335  .00005880  00000-0  85053-3 0  9995
2 25442  81.7524 286.7322 0199165 159.7598 201.1648 14.63300142557307
Source of the keplerian elements: AFSPC